Location: Ay?beleni
(36.6500°N, 30.3000°E)
Time: 00:30:02
(UTC+00:00)

Nadezhda 1 Rocket - Pass Details

Date: 09 April 2020
Orbit: 941 x 1006 km, 83.0° (Epoch: 06 June)

Event Time Altitude Azimuth Distance (km) Brightness Sun altitude
Rises 17:28:38 0° 182° (S) 3,717 6.9 -12.5°
Reaches altitude 10° 17:31:10 10° 181° (S) 2,771 6.2 -13.0°
Maximum altitude 17:37:33 82° 95° (E) 1,015 4.0 -14.2°
Drops below altitude 10° 17:43:55 10° 8° (N) 2,765 6.5 -15.4°
Sets 17:46:26 0° 8° (N) 3,710 7.2 -15.8°
